Vertical_Velocity
-3 -3 -3 -3 -3 -3 -2 -3 -3 -2 -2 -1 -1 -1 -2 -1 -0 -0 0 -0 -0 -0 -0 -0 -1 -1 -2 -2 -2 -2 -2 -2 -2 -2 -3 -3 -4 -4 -4 -5 -5 -4 -4 -4 -3 -3 -2 -3 -5 -7 -5 -4 -4 -5 -5 -5 -5 -5 -5 -5 -4 -3 -2 -1 -1 -1 -1 -2 -3 -3 -3 -2 -2 -1 -1 -1 -1 -1 -2 -2 -1 -1 -1 -0 1 1 1 0 -0 -1 -0 -1 -1 -0 1 1 1 0 -0 -0 -1 -1 0
-2 -2 -2 -2 -2 -2 -2 -2 -2 -2 -1 -1 -1 -1 -2 -1 -0 0 1 0 -0 -0 0 0 0 -0 -1 -1 -2 -2 -2 -1 -1 -1 -2 -2 -2 -2 -3 -3 -3 -3 -3 -4 -4 -4 -3 -4 -6 -7 -4 -3 -3 -4 -5 -5 -5 -5 -6 -6 -5 -3 -2 -1 -1 -1 -1 -1 -2 -3 -4 -3 -3 -2 -1 -1 -1 -2 -2 -2 -2 -2 -1 -1 -1 -0 0 1 0 -0 -1 -1 -1 -1 0 1 1 1 0 -0 -0 -0 1
-1 -1 -1 -1 -1 -1 -1 -1 -1 -1 -0 -1 -0 -0 -1 -1 -1 -0 0 0 -0 -0 0 1 0 0 0 -0 -0 -1 -1 -1 -1 -1 -1 -1 -1 -1 -1 -2 -2 -2 -2 -3 -3 -3 -4 -5 -7 -7 -4 -3 -2 -3 -3 -4 -5 -6 -6 -6 -6 -4 -2 -1 -1 -1 -1 -1 -1 -2 -2 -3 -4 -3 -2 -2 -2 -2 -2 -2 -2 -2 -2 -2 -1 -1 0 0 0 0 -0 -1 -1 -1 -0 0 1 1 1 0 0 1 1
-0 -0 0 0 0 -0 -0 -0 -0 -0 -1 -0 -0 -1 -1 -1 -1 -1 -1 -0 -1 -1 -0 -0 -0 -0 0 0 1 0 0 -0 -0 -1 -1 -1 -1 -0 -0 -0 -1 -2 -2 -2 -2 -3 -4 -6 -7 -6 -4 -4 -3 -3 -3 -3 -4 -5 -6 -7 -7 -5 -3 -2 -1 -1 -1 -1 -1 -1 -2 -2 -3 -4 -4 -3 -2 -2 -2 -2 -2 -2 -2 -2 -2 -1 -0 0 0 0 0 -1 -1 -1 -1 -0 0 1 1 0 0 1 1
0 0 0 0 0 -0 -0 -0 -0 -0 -1 -1 -1 -1 -2 -2 -2 -2 -1 -2 -2 -2 -2 -1 -1 -2 -1 -0 0 0 1 0 -0 -1 -1 -1 -1 -1 -0 -0 -1 -1 -2 -2 -2 -2 -4 -7 -6 -3 -3 -4 -4 -4 -4 -3 -3 -4 -4 -6 -7 -6 -5 -3 -2 -1 -1 -1 -1 -1 -2 -2 -3 -4 -4 -4 -3 -2 -2 -2 -2 -2 -3 -3 -2 -1 -1 -0 0 0 1 -0 -1 -1 -1 -0 -0 0 0 0 1 1 1
-0 -0 -0 -0 -0 -1 -1 -1 -1 -1 -1 -1 -2 -2 -3 -2 -2 -2 -2 -3 -3 -3 -3 -3 -3 -4 -3 -2 -1 -1 -0 -0 -0 -1 -1 -2 -2 -1 -2 -1 -2 -2 -2 -1 -2 -2 -3 -7 -5 -2 -1 -2 -3 -4 -4 -4 -3 -3 -3 -5 -6 -6 -6 -4 -3 -2 -1 -1 -1 -1 -1 -2 -3 -3 -3 -3 -3 -2 -2 -2 -2 -2 -3 -3 -2 -2 -1 -1 -0 0 0 0 -0 -1 -1 -1 -1 -1 -0 0 1 1 0
-1 -1 -1 -1 -1 -1 -1 -2 -2 -2 -2 -2 -3 -3 -3 -3 -3 -3 -3 -4 -5 -5 -5 -4 -5 -5 -5 -4 -3 -3 -2 -2 -1 -1 -1 -1 -2 -2 -2 -3 -3 -3 -3 -2 -2 -2 -3 -6 -4 -1 0 -0 -1 -2 -3 -3 -3 -3 -3 -3 -4 -5 -6 -5 -4 -2 -1 -1 -1 -1 -1 -2 -2 -2 -2 -1 -1 -2 -4 -3 -2 -2 -2 -3 -3 -3 -2 -1 -1 -0 0 0 -0 -1 -2 -1 -1 -0 0 1 1 1 0
-1 -1 -1 -1 -1 -1 -2 -2 -2 -3 -3 -3 -3 -4 -4 -4 -4 -4 -4 -5 -6 -6 -6 -6 -6 -6 -5 -5 -5 -5 -4 -3 -2 -2 -1 -1 -1 -2 -2 -3 -4 -4 -4 -4 -4 -4 -3 -5 -5 -3 -1 -0 -0 -0 -2 -3 -3 -3 -4 -3 -3 -3 -4 -5 -4 -3 -1 -1 -1 -1 -2 -2 -2 -1 -1 -1 -1 -2 -4 -3 -2 -2 -2 -2 -3 -3 -3 -2 -1 -1 -0 0 -0 -1 -1 -1 -1 -0 -0 0 1 1 1
-1 -1 -1 -1 -1 -1 -2 -2 -3 -3 -3 -3 -4 -5 -5 -4 -5 -5 -5 -6 -7 -7 -7 -6 -7 -7 -6 -6 -6 -6 -5 -4 -3 -2 -1 -1 -1 -2 -1 -2 -3 -3 -4 -5 -5 -4 -3 -5 -5 -4 -3 -2 -0 0 -1 -2 -3 -3 -4 -3 -3 -2 -3 -4 -4 -3 -2 -1 -1 -2 -2 -2 -1 -1 -0 -1 -1 -2 -1 -2 -3 -2 -2 -2 -2 -3 -3 -3 -2 -2 -1 -0 0 0 -0 -1 -1 -1 -1 -1 0 1 1
-1 -1 -1 -1 -2 -2 -2 -2 -3 -3 -4 -4 -4 -5 -5 -5 -5 -5 -5 -6 -7 -7 -7 -7 -7 -7 -6 -6 -7 -7 -6 -5 -4 -3 -3 -2 -2 -2 -1 -2 -2 -2 -4 -5 -4 -4 -3 -4 -4 -5 -4 -4 -2 -0 -1 -1 -2 -2 -3 -3 -2 -2 -2 -3 -3 -2 -2 -1 -1 -2 -1 -1 -1 -0 0 -0 -0 -1 -1 -2 -3 -3 -2 -2 -2 -2 -2 -3 -3 -2 -2 -1 -0 0 0 -0 -1 -1 -1 -1 -0 1 1
-1 -1 -1 -1 -2 -3 -3 -3 -4 -4 -4 -4 -5 -5 -5 -5 -5 -5 -5 -6 -6 -6 -6 -6 -7 -7 -7 -7 -7 -7 -6 -5 -5 -4 -3 -3 -2 -2 -2 -2 -2 -2 -3 -3 -3 -3 -3 -3 -3 -4 -4 -4 -3 -2 -2 -1 -1 -2 -2 -3 -2 -2 -2 -3 -3 -3 -2 -2 -2 -2 -1 -0 -0 -0 -0 -0 -0 -0 -1 -1 -2 -2 -3 -2 -2 -2 -3 -3 -3 -3 -2 -2 -1 -0 0 0 -0 -1 -1 -1 -0 0 1
-0 -0 -1 -2 -3 -4 -4 -4 -5 -5 -5 -5 -5 -5 -5 -5 -5 -5 -5 -5 -5 -5 -5 -6 -6 -6 -6 -7 -7 -7 -6 -5 -5 -4 -4 -3 -3 -3 -3 -2 -2 -2 -2 -3 -3 -3 -3 -4 -3 -3 -4 -4 -4 -3 -3 -3 -2 -2 -1 -3 -2 -2 -2 -3 -4 -5 -5 -4 -2 -1 -1 -1 -1 -1 -1 -1 -1 -0 -0 0 -0 -1 -3 -3 -2 -2 -2 -2 -3 -3 -3 -2 -2 -1 -0 0 0 -0 -1 -1 -1 -0 1
-0 -1 -2 -3 -4 -5 -5 -5 -5 -5 -5 -5 -5 -5 -5 -5 -5 -5 -5 -5 -5 -5 -5 -5 -5 -5 -6 -6 -7 -7 -6 -5 -4 -4 -3 -3 -3 -3 -3 -3 -2 -2 -2 -3 -3 -3 -4 -4 -4 -4 -4 -4 -4 -4 -4 -5 -4 -3 -2 -3 -3 -2 -3 -3 -4 -4 -5 -5 -3 -2 -1 -1 -1 -1 -2 -2 -1 -0 -0 0 -0 -1 -2 -3 -3 -2 -1 -2 -2 -2 -3 -3 -2 -2 -1 -0 0 0 -1 -1 -1 -0 0
-2 -3 -4 -4 -5 -5 -5 -6 -6 -6 -6 -5 -5 -5 -5 -5 -4 -4 -4 -4 -4 -4 -4 -5 -5 -5 -5 -6 -6 -6 -5 -5 -4 -3 -3 -3 -3 -3 -3 -3 -3 -3 -3 -3 -3 -4 -4 -4 -5 -5 -5 -5 -4 -4 -3 -5 -5 -4 -4 -4 -3 -3 -3 -3 -3 -3 -4 -5 -5 -4 -2 -2 -2 -2 -2 -2 -2 -1 -1 -0 -1 -1 -1 -2 -3 -3 -2 -2 -2 -2 -2 -3 -3 -2 -2 -1 -0 0 -0 -0 -0 -0 -0
-4 -4 -5 -5 -5 -5 -5 -5 -6 -6 -5 -5 -5 -5 -4 -4 -4 -4 -4 -4 -4 -4 -4 -4 -4 -4 -4 -5 -6 -6 -5 -4 -3 -3 -3 -3 -3 -3 -3 -3 -3 -4 -4 -4 -3 -4 -4 -4 -4 -5 -5 -5 -5 -5 -4 -4 -4 -4 -4 -4 -4 -4 -4 -4 -4 -3 -3 -4 -5 -5 -4 -3 -2 -2 -2 -2 -2 -2 -1 -1 -1 -1 -1 -1 -2 -3 -3 -3 -3 -2 -3 -3 -3 -3 -2 -1 -0 0 0 0 0 0 -0
-5 -5 -6 -6 -6 -5 -5 -5 -5 -5 -5 -5 -5 -5 -4 -4 -4 -4 -4 -4 -4 -4 -4 -4 -5 -4 -4 -5 -6 -6 -6 -6 -5 -4 -3 -3 -3 -3 -3 -3 -3 -4 -5 -5 -4 -4 -4 -4 -4 -4 -5 -5 -5 -5 -5 -5 -4 -4 -3 -4 -4 -4 -5 -5 -4 -4 -3 -3 -4 -5 -5 -4 -3 -2 -1 -2 -2 -2 -1 -1 -1 -1 -1 -1 -1 -1 -2 -3 -3 -3 -3 -3 -3 -3 -3 -2 -1 -0 0 0 1 0 -0
-6 -6 -6 -6 -6 -6 -5 -5 -5 -5 -5 -5 -5 -5 -5 -5 -5 -4 -4 -4 -4 -5 -5 -5 -5 -5 -4 -5 -5 -6 -7 -8 -8 -7 -6 -5 -4 -4 -4 -3 -4 -4 -5 -5 -5 -5 -5 -5 -5 -5 -5 -5 -5 -5 -6 -5 -4 -3 -3 -3 -4 -4 -4 -4 -4 -4 -4 -3 -3 -4 -6 -5 -4 -2 -1 -1 -1 -1 -1 -0 -0 0 0 0 0 0 -1 -2 -3 -3 -3 -3 -3 -3 -3 -2 -2 -1 -0 1 1 1 -0
-6 -6 -6 -6 -6 -6 -6 -5 -5 -6 -6 -5 -5 -5 -5 -5 -5 -5 -5 -5 -5 -5 -6 -5 -5 -5 -4 -4 -5 -6 -7 -8 -9 -9 -9 -8 -7 -6 -5 -5 -5 -5 -5 -6 -6 -6 -5 -5 -5 -5 -5 -5 -5 -5 -6 -6 -5 -3 -3 -3 -4 -4 -4 -3 -3 -4 -4 -4 -3 -3 -4 -6 -5 -3 -1 -0 0 -0 -0 -0 -0 0 1 1 2 2 1 -0 -2 -3 -3 -3 -3 -3 -3 -3 -2 -2 -1 0 1 1 -0
-5 -5 -5 -5 -5 -5 -6 -6 -6 -6 -6 -7 -7 -7 -7 -7 -7 -7 -7 -7 -7 -6 -6 -6 -5 -5 -5 -5 -5 -6 -7 -8 -8 -9 -10 -9 -9 -8 -8 -8 -7 -7 -6 -6 -6 -6 -5 -6 -5 -5 -5 -5 -5 -4 -6 -6 -5 -4 -4 -4 -4 -4 -4 -3 -3 -3 -4 -4 -4 -3 -3 -4 -5 -5 -3 -1 -1 -0 -0 -1 -1 -0 1 1 2 2 2 1 -0 -2 -3 -2 -2 -2 -2 -3 -2 -2 -1 -0 0 1 0
-5 -5 -5 -5 -5 -5 -6 -6 -6 -6 -7 -8 -8 -8 -8 -8 -8 -8 -8 -8 -7 -6 -6 -5 -5 -5 -5 -5 -6 -6 -7 -7 -7 -7 -9 -9 -9 -9 -9 -9 -9 -8 -7 -7 -7 -7 -6 -7 -6 -5 -4 -5 -5 -5 -5 -6 -5 -4 -4 -4 -4 -4 -4 -4 -3 -3 -3 -4 -4 -4 -3 -3 -4 -5 -4 -3 -2 -1 -1 -1 -1 -1 -1 0 1 2 2 2 1 -1 -3 -2 -2 -2 -2 -2 -2 -2 -2 -1 -0 0 0
-6 -6 -6 -6 -6 -6 -6 -7 -7 -7 -7 -8 -8 -8 -7 -7 -8 -8 -7 -6 -6 -5 -5 -5 -5 -6 -5 -5 -5 -5 -6 -6 -6 -6 -7 -9 -9 -8 -8 -9 -9 -9 -7 -7 -8 -8 -6 -7 -7 -7 -5 -5 -5 -5 -5 -5 -4 -4 -4 -4 -4 -4 -4 -4 -4 -4 -3 -4 -4 -4 -5 -4 -4 -4 -5 -4 -3 -2 -2 -2 -2 -2 -2 -1 0 1 2 2 1 -1 -3 -2 -1 -1 -2 -2 -2 -2 -3 -2 -2 -0 0
-6 -7 -7 -7 -7 -7 -7 -7 -7 -7 -7 -7 -7 -6 -6 -6 -6 -5 -5 -5 -5 -4 -5 -5 -5 -6 -6 -5 -5 -5 -4 -5 -6 -6 -4 -6 -8 -8 -7 -7 -8 -8 -8 -7 -8 -8 -7 -7 -8 -7 -6 -6 -6 -6 -5 -4 -3 -3 -3 -4 -4 -4 -4 -4 -4 -4 -3 -3 -4 -4 -5 -5 -4 -4 -6 -6 -5 -4 -3 -2 -2 -2 -3 -2 -1 -0 1 1 1 -0 -2 -2 -1 -1 -1 -3 -3 -3 -2 -2 -1 -1 -0
-7 -7 -7 -7 -7 -7 -7 -7 -7 -6 -6 -6 -5 -5 -4 -4 -4 -3 -3 -3 -4 -4 -4 -4 -4 -5 -5 -5 -5 -4 -3 -3 -4 -6 -5 -4 -5 -6 -7 -6 -6 -7 -8 -7 -7 -8 -8 -7 -8 -8 -7 -7 -7 -7 -6 -4 -3 -3 -3 -3 -4 -4 -4 -4 -4 -4 -4 -4 -4 -4 -5 -5 -4 -4 -5 -6 -6 -5 -4 -3 -3 -2 -3 -3 -2 -1 -0 1 1 0 -1 -2 -2 -1 -1 -2 -3 -3 -2 -1 -0 -0 -0
-7 -7 -7 -7 -7 -7 -7 -6 -5 -5 -4 -4 -4 -4 -3 -3 -2 -2 -2 -3 -3 -3 -4 -4 -4 -3 -3 -3 -3 -4 -4 -2 -2 -3 -5 -4 -3 -4 -6 -6 -5 -6 -7 -7 -7 -7 -7 -7 -7 -8 -8 -7 -8 -8 -7 -5 -4 -3 -3 -3 -3 -4 -4 -5 -5 -4 -4 -4 -4 -4 -4 -5 -4 -4 -4 -6 -6 -6 -5 -4 -3 -2 -3 -3 -3 -2 -2 -1 -0 0 -1 -2 -1 -0 -1 -1 -2 -3 -3 -3 -2 -1 -0
-7 -6 -6 -6 -5 -5 -5 -4 -4 -4 -3 -3 -3 -3 -3 -3 -2 -2 -2 -3 -3 -2 -3 -3 -3 -3 -3 -2 -2 -2 -4 -3 -2 -1 -2 -4 -4 -3 -4 -5 -5 -5 -5 -6 -6 -6 -7 -6 -6 -7 -8 -8 -8 -9 -9 -7 -5 -3 -3 -3 -3 -3 -4 -4 -4 -4 -5 -4 -4 -4 -4 -4 -4 -3 -3 -3 -5 -5 -5 -4 -3 -3 -3 -3 -3 -3 -3 -4 -3 -2 -2 -2 -0 1 -1 -1 -2 -3 -3 -2 -2 -2 -1
-6 -5 -5 -5 -4 -4 -3 -3 -3 -3 -3 -3 -3 -3 -2 -3 -3 -2 -1 -2 -3 -3 -2 -2 -2 -1 -2 -3 -2 -2 -3 -4 -3 -2 -2 -3 -3 -4 -3 -4 -5 -5 -5 -5 -6 -6 -6 -6 -6 -6 -7 -7 -8 -9 -10 -9 -7 -5 -4 -3 -3 -3 -4 -4 -4 -4 -4 -5 -5 -4 -4 -4 -4 -3 -2 -2 -2 -3 -4 -3 -2 -2 -2 -2 -2 -2 -3 -4 -4 -4 -3 -1 1 1 -1 -2 -3 -3 -3 -2 -1 -1 -1
-4 -4 -3 -3 -3 -3 -2 -2 -3 -3 -3 -2 -3 -3 -3 -2 -2 -3 -3 -2 -2 -2 -2 -2 -2 -2 -1 -3 -3 -2 -2 -4 -4 -4 -3 -3 -3 -4 -4 -3 -4 -5 -5 -5 -5 -6 -5 -6 -6 -5 -5 -6 -7 -8 -10 -10 -9 -7 -5 -4 -3 -3 -3 -4 -4 -4 -4 -4 -5 -5 -4 -4 -4 -4 -3 -2 -2 -2 -3 -3 -2 -2 -1 -0 -0 -1 -2 -3 -3 -4 -3 -0 2 3 -1 -2 -3 -3 -4 -3 -2 -1 -1
-3 -3 -3 -3 -2 -2 -2 -2 -2 -2 -3 -2 -2 -2 -4 -3 -2 -2 -3 -3 -3 -2 -2 -2 -2 -2 -2 -2 -3 -3 -4 -4 -4 -3 -3 -3 -3 -3 -5 -4 -4 -4 -4 -4 -5 -5 -5 -5 -5 -5 -5 -5 -5 -7 -9 -10 -10 -8 -6 -5 -4 -3 -4 -4 -4 -4 -4 -4 -4 -4 -4 -4 -4 -4 -4 -3 -2 -1 -2 -2 -2 -1 -1 -0 0 0 0 -1 -2 -2 -2 1 3 3 0 -1 -2 -2 -2 -2 -2 -3 -2
-2 -2 -2 -2 -2 -1 -1 -1 -2 -2 -2 -2 -2 -2 -3 -4 -4 -3 -1 -2 -3 -3 -3 -2 -2 -2 -2 -2 -2 -3 -3 -5 -4 -3 -2 -3 -3 -3 -4 -4 -4 -4 -5 -4 -5 -5 -6 -5 -5 -5 -5 -5 -4 -5 -6 -9 -10 -9 -7 -6 -5 -4 -4 -4 -4 -5 -5 -4 -3 -4 -5 -4 -4 -4 -5 -4 -3 -2 -1 -2 -2 -2 -2 -2 -1 -0 1 1 0 -0 0 1 2 3 3 -0 -1 -1 1 0 -1 -2 -2
-2 -2 -2 -2 -2 -2 -1 -1 -1 -2 -2 -2 -3 -2 -2 -2 -3 -3 -3 -1 -1 -1 -2 -3 -3 -2 -2 -2 -3 -3 -2 -3 -4 -4 -3 -3 -2 -2 -3 -4 -4 -4 -5 -4 -4 -5 -7 -6 -6 -5 -6 -5 -4 -4 -4 -8 -9 -9 -7 -7 -6 -5 -4 -4 -4 -5 -5 -4 -4 -4 -5 -4 -4 -4 -5 -4 -3 -2 -2 -2 -2 -2 -2 -2 -1 -1 1 1 0 -0 1 1 1 3 3 -0 -2 -1 2 2 -0 -2 -2
-2 -2 -2 -1 -1 -1 -1 -1 -1 -1 -2 -2 -2 -2 -3 -2 -1 -1 -3 -3 -2 -1 -1 -2 -3 -3 -2 -2 -3 -4 -3 -3 -4 -5 -5 -4 -3 -3 -3 -4 -4 -4 -5 -5 -4 -4 -6 -6 -6 -5 -6 -5 -5 -4 -5 -6 -9 -10 -9 -8 -7 -6 -5 -5 -4 -5 -5 -5 -4 -3 -4 -5 -5 -5 -5 -5 -4 -2 -1 -1 -1 -1 -1 -2 -2 -1 1 1 -0 -0 0 -0 0 1 2 2 -1 -4 -2 1 1 -0 -2
-2 -2 -2 -1 -1 -1 -1 -1 -1 -1 -2 -2 -2 -2 -1 -2 -2 -1 0 -2 -3 -3 -2 -2 -3 -4 -4 -3 -3 -3 -4 -4 -4 -5 -5 -6 -5 -4 -4 -4 -5 -5 -5 -5 -5 -5 -5 -6 -6 -6 -6 -5 -5 -4 -5 -6 -8 -10 -12 -11 -9 -8 -6 -5 -5 -5 -5 -5 -5 -4 -4 -5 -5 -5 -5 -6 -5 -3 -2 -1 -0 -0 -1 -1 -1 -1 -1 -1 -1 -0 1 -1 -0 1 4 5 2 -3 -5 -1 1 1 -1
-1 -2 -1 -1 -1 -1 -1 -1 -1 -1 -1 -2 -2 -2 -0 -1 -1 -2 -1 0 -1 -3 -3 -2 -2 -3 -5 -4 -2 -1 -3 -3 -4 -5 -5 -6 -7 -7 -5 -5 -5 -6 -6 -7 -7 -6 -5 -7 -7 -7 -6 -6 -5 -4 -5 -6 -8 -9 -12 -13 -12 -10 -8 -6 -5 -5 -5 -5 -5 -5 -5 -4 -4 -4 -4 -5 -5 -5 -4 -3 -2 -1 -0 -0 -0 -1 -2 -1 -1 -0 0 0 1 3 8 9 6 0 -4 -3 0 2 1
-1 -1 -1 -1 -1 -1 -1 -1 -1 -2 -2 -2 -2 -2 -1 -0 -0 -1 -2 -1 -0 -1 -3 -3 -2 -2 -4 -5 -3 -2 -2 -3 -4 -5 -6 -6 -6 -7 -7 -6 -7 -7 -7 -7 -7 -7 -7 -7 -7 -7 -7 -7 -6 -6 -6 -7 -8 -9 -11 -12 -12 -12 -10 -8 -6 -5 -5 -5 -5 -5 -5 -4 -3 -3 -3 -4 -4 -5 -5 -4 -3 -3 -2 -1 -1 -1 -2 -1 -1 0 2 3 4 5 8 9 8 4 -1 -4 -3 -1 1
-1 -1 -1 -1 -1 -1 -2 -2 -1 -1 -2 -2 -1 -1 -2 -1 -1 -1 -2 -3 -2 -1 -2 -3 -3 -3 -3 -4 -4 -4 -3 -3 -4 -5 -7 -7 -7 -7 -7 -7 -7 -7 -8 -7 -8 -8 -8 -7 -7 -7 -7 -8 -8 -8 -7 -8 -8 -9 -10 -11 -12 -12 -12 -10 -8 -6 -5 -5 -5 -5 -5 -4 -2 -2 -2 -3 -4 -4 -4 -4 -4 -5 -4 -4 -4 -4 -3 -2 0 3 5 5 7 8 9 7 6 5 1 -4 -6 -5 -2
-1 -1 -1 -1 -1 -1 -1 -2 -2 -1 -1 -1 -1 -1 -1 -2 -2 -2 -1 -3 -4 -3 -2 -3 -4 -4 -3 -3 -4 -5 -5 -5 -5 -5 -6 -7 -7 -6 -7 -6 -6 -6 -7 -8 -8 -8 -8 -7 -7 -7 -7 -8 -8 -8 -8 -8 -8 -8 -9 -10 -11 -12 -12 -11 -10 -8 -6 -6 -6 -6 -5 -3 -2 -1 -1 -2 -3 -3 -3 -4 -5 -5 -6 -6 -5 -5 -5 -2 2 6 7 10 14 15 13 10 9 8 3 -4 -6 -6 -4
-1 -1 -1 -2 -2 -2 -1 -1 -2 -2 -1 -1 -1 -2 -1 -2 -3 -4 -2 -3 -4 -4 -4 -4 -4 -4 -3 -3 -4 -5 -6 -6 -7 -7 -7 -7 -7 -7 -6 -6 -5 -5 -6 -6 -7 -8 -8 -8 -7 -6 -6 -7 -7 -8 -8 -8 -8 -7 -7 -8 -9 -9 -10 -10 -10 -9 -8 -7 -7 -7 -6 -4 -2 -1 -0 -1 -1 -2 -2 -3 -3 -4 -5 -5 -5 -5 -5 -0 4 7 9 17 19 16 10 9 12 12 6 -3 -7 -6 -3
-1 -1 -1 -2 -2 -2 -2 -2 -1 -1 -1 -1 -1 -2 -2 -2 -3 -4 -5 -3 -3 -3 -3 -3 -4 -5 -5 -4 -4 -5 -6 -6 -7 -8 -9 -8 -7 -7 -6 -5 -5 -5 -5 -5 -5 -6 -7 -8 -7 -6 -6 -6 -6 -7 -7 -7 -7 -6 -5 -6 -7 -7 -8 -8 -8 -8 -8 -9 -9 -8 -7 -4 -2 0 1 1 0 -0 -1 -2 -2 -2 -3 -3 -3 -3 -2 5 8 9 12 19 17 9 -3 -1 7 13 12 -2 -8 -9 -7
-1 -1 -1 -2 -2 -2 -2 -2 -2 -1 -1 -1 -1 -1 -3 -2 -2 -2 -5 -4 -3 -3 -4 -3 -3 -3 -5 -6 -5 -4 -5 -6 -6 -6 -8 -8 -7 -7 -6 -5 -4 -4 -5 -5 -5 -6 -6 -7 -7 -7 -6 -6 -6 -6 -7 -7 -6 -5 -4 -5 -6 -6 -7 -7 -7 -6 -6 -9 -10 -10 -8 -5 -2 0 1 2 2 2 1 -1 -2 -2 -2 -1 -1 2 8 11 11 10 12 13 10 3 -8 -4 7 16 16 1 -9 -12 -11
-1 -1 -1 -1 -2 -2 -3 -3 -2 -2 -1 -1 -1 -1 -2 -3 -2 -2 -2 -3 -3 -3 -3 -4 -5 -5 -4 -5 -6 -5 -4 -6 -6 -6 -6 -7 -7 -6 -6 -5 -4 -4 -5 -5 -5 -6 -7 -7 -7 -7 -7 -6 -5 -5 -6 -6 -6 -5 -4 -5 -6 -6 -6 -6 -6 -5 -4 -4 -6 -7 -8 -6 -3 -1 0 1 2 4 6 5 1 -2 -3 -2 1 7 14 12 7 5 8 10 8 3 -1 3 9 13 11 1 -7 -10 -9
-0 -1 -1 -1 -2 -2 -2 -2 -2 -2 -1 -1 -1 -1 -1 -2 -3 -3 -2 -2 -3 -3 -3 -3 -4 -7 -7 -6 -6 -7 -6 -6 -6 -6 -6 -6 -6 -6 -5 -5 -5 -5 -5 -4 -5 -6 -7 -7 -7 -7 -7 -6 -5 -5 -7 -7 -6 -5 -6 -6 -6 -6 -5 -5 -4 -2 -1 -1 -2 -4 -8 -7 -4 -1 -1 -1 1 4 10 13 11 5 1 -0 2 5 8 5 3 3 6 10 9 6 5 5 6 5 2 -1 -3 -4 -5
-0 -0 -1 -1 -2 -2 -2 -3 -3 -2 -2 -2 -2 -2 -1 -2 -2 -3 -3 -3 -2 -3 -4 -3 -3 -4 -7 -8 -8 -8 -8 -7 -6 -6 -6 -6 -5 -5 -5 -6 -6 -6 -5 -4 -4 -5 -6 -6 -6 -6 -6 -6 -6 -6 -7 -6 -6 -6 -6 -7 -7 -7 -5 -4 -2 -1 -1 -0 -1 -3 -7 -7 -4 -1 1 0 1 3 7 14 16 15 9 5 5 4 1 0 5 10 11 14 12 9 4 1 0 1 0 1 3 3 -2
-0 -0 -1 -1 -1 -2 -2 -3 -3 -3 -2 -2 -2 -2 -2 -2 -2 -2 -2 -3 -3 -2 -2 -4 -3 -2 -3 -6 -8 -9 -9 -8 -7 -7 -6 -7 -7 -7 -6 -7 -7 -7 -6 -4 -4 -4 -5 -5 -5 -4 -4 -4 -6 -7 -7 -6 -6 -6 -6 -6 -7 -6 -5 -4 -3 -2 -1 1 1 -1 -5 -7 -6 -2 2 2 2 2 3 6 10 11 9 6 5 5 3 7 13 17 16 15 11 6 -0 -2 -0 3 6 5 5 4 -1
-1 -1 -1 -1 -1 -1 -2 -2 -3 -3 -3 -2 -2 -2 -2 -2 -2 -1 -1 -3 -4 -3 -1 -2 -3 -4 -3 -4 -5 -6 -7 -8 -8 -8 -7 -7 -8 -9 -8 -8 -8 -8 -7 -5 -4 -4 -4 -4 -5 -4 -4 -4 -5 -7 -8 -7 -6 -5 -4 -4 -4 -5 -5 -4 -3 -2 -1 1 1 -1 -3 -4 -4 -4 -2 0 1 2 2 3 4 5 6 5 4 5 8 11 13 13 10 7 3 0 -2 -0 3 5 4 0 3 6 4
-1 -1 -1 -1 -1 -1 -1 -2 -3 -3 -3 -3 -2 -2 -2 -2 -2 -1 -1 -2 -4 -5 -5 -3 -4 -5 -5 -4 -3 -3 -4 -5 -6 -7 -9 -8 -8 -9 -10 -10 -9 -8 -8 -7 -6 -4 -3 -3 -4 -4 -5 -4 -4 -5 -6 -5 -5 -4 -4 -4 -4 -4 -5 -5 -4 -2 -1 0 0 -0 -1 -0 -0 -1 -3 -4 -4 -3 -1 3 6 8 10 12 11 10 10 9 8 6 5 2 -0 -0 2 6 6 3 -5 -4 2 7 6
-1 -1 -1 -1 -1 -1 -1 -2 -2 -3 -3 -3 -3 -3 -2 -3 -3 -2 -2 -1 -2 -4 -7 -5 -5 -4 -6 -4 -2 -1 -1 -2 -4 -6 -7 -9 -9 -9 -9 -10 -9 -7 -7 -9 -8 -6 -4 -3 -3 -3 -4 -3 -3 -2 -2 -2 -3 -3 -4 -6 -6 -5 -5 -6 -5 -3 -1 1 1 0 0 2 2 2 -0 -4 -5 -6 -5 -1 4 9 10 9 8 7 6 6 6 6 5 3 3 4 7 8 6 3 -0 2 5 6 3
-1 -1 -1 -1 -1 -1 -1 -2 -2 -3 -3 -3 -3 -3 -3 -3 -3 -3 -4 -3 -2 -1 -3 -4 -4 -4 -6 -6 -3 -0 0 -1 -3 -5 -7 -8 -8 -8 -8 -10 -10 -8 -5 -7 -8 -7 -4 -4 -3 -3 -2 -1 -1 -1 -0 -1 -2 -3 -5 -7 -7 -6 -6 -6 -5 -2 0 1 0 -0 0 0 1 1 0 -2 -3 -4 -5 -4 -1 3 5 4 3 2 2 3 5 5 5 3 5 7 9 7 5 5 7 7 6 4 1
-1 -2 -2 -2 -1 -2 -2 -2 -2 -3 -3 -3 -3 -3 -4 -4 -3 -3 -3 -4 -3 -2 -2 -4 -5 -4 -5 -9 -7 -4 -1 -2 -2 -3 -6 -9 -11 -10 -8 -8 -10 -11 -8 -6 -6 -6 -4 -3 -4 -4 -2 -0 -0 -1 -1 -1 -2 -2 -4 -5 -7 -8 -7 -6 -4 -2 1 0 -1 -2 -1 -1 -1 -1 -1 0 1 -0 -2 -3 -3 -0 3 4 2 1 1 2 3 4 2 2 3 4 5 4 4 3 3 1 0 -0 -2
-1 -1 -2 -2 -2 -2 -2 -2 -2 -3 -3 -3 -3 -2 -3 -3 -3 -2 -1 -2 -3 -4 -3 -5 -7 -7 -6 -8 -10 -9 -4 -3 -2 -2 -2 -8 -14 -19 -21 -15 -13 -13 -14 -9 -5 -4 -4 -4 -4 -4 -1 1 1 0 -1 -0 -0 -2 -3 -3 -6 -9 -9 -5 -3 -2 0 -0 -2 -3 -2 -1 -1 -2 -1 1 2 1 0 -1 -1 -1 2 3 3 2 0 1 0 -1 -2 -3 -3 -2 -0 0 1 -0 -2 -3 -4 -4 -5
-1 -1 -1 -2 -2 -2 -2 -2 -2 -3 -3 -4 -4 -3 -2 -2 -2 -2 -1 0 -0 -2 -3 -2 -4 -6 -8 -8 -9 -8 -5 -2 -3 -4 -5 -5 -7 -12 -22 -24 -22 -19 -18 -13 -7 -2 -1 -3 -3 -0 4 5 4 2 1 1 0 -1 -3 -2 -4 -7 -9 -6 -4 -2 -1 -2 -2 -2 -2 -1 -0 -0 1 2 3 2 1 1 1 1 2 1 1 0 1 2 -0 -3 -6 -7 -7 -7 -5 -5 -5 -4 -4 -5 -6 -6 -5
-2 -2 -1 -1 -2 -2 -2 -2 -2 -2 -3 -3 -4 -4 -4 -3 -2 -2 -2 -0 0 -0 -3 -2 -1 -2 -6 -7 -7 -6 -3 -0 -0 -1 -2 -6 -3 2 2 -10 -18 -23 -24 -20 -15 -9 -3 -2 1 6 11 10 7 4 2 2 0 -2 -3 -2 -3 -5 -7 -6 -5 -3 -2 -2 -2 -1 0 1 1 2 3 4 4 3 1 1 2 2 3 0 -1 -0 2 2 -1 -4 -7 -8 -8 -8 -7 -7 -6 -4 -4 -5 -5 -4 -1
-2 -2 -2 -2 -2 -2 -2 -2 -2 -3 -3 -3 -3 -3 -4 -4 -3 -3 -3 -3 -2 -2 -3 -4 -4 -3 -3 -6 -8 -7 -2 1 3 4 6 -2 -5 -3 4 5 -1 -11 -21 -24 -29 -27 -13 -8 -2 5 16 12 7 2 1 -0 -2 -3 -3 -2 -3 -5 -5 -5 -4 -2 -2 -2 -1 -0 1 1 2 3 4 4 4 3 2 2 2 2 1 1 2 3 6 4 0 -3 -5 -7 -7 -7 -6 -5 -4 -3 -2 -4 -5 -2 3
-2 -2 -2 -2 -2 -2 -2 -2 -2 -3 -4 -4 -4 -3 -3 -4 -4 -3 -2 -3 -3 -3 -3 -3 -4 -5 -6 -8 -10 -10 -5 2 5 5 6 4 -1 -5 -6 4 6 3 -1 -2 -19 -33 -26 -16 -17 -16 1 10 7 -0 -2 -2 -4 -5 -3 -3 -4 -5 -4 -2 -1 -0 -1 -2 -2 -1 1 1 2 3 4 3 3 2 2 2 2 1 1 2 5 8 8 5 2 -1 -3 -5 -5 -5 -5 -3 -2 -0 -1 -2 -2 -1 3
-2 -2 -2 -2 -2 -2 -2 -2 -2 -2 -3 -4 -5 -5 -4 -4 -4 -3 -2 -2 -1 -1 -0 0 -1 -3 -6 -8 -11 -13 -13 -2 3 6 5 7 11 11 3 1 0 0 -1 11 5 -10 -27 -19 -21 -26 -29 2 9 4 -3 -1 -3 -5 -4 -4 -5 -4 -2 -1 -0 1 0 -1 -1 0 1 1 1 2 3 3 2 2 2 2 3 4 5 8 9 9 7 4 1 -2 -4 -4 -4 -6 -7 -7 -6 -4 -1 -2 -1 -0 0
-2 -2 -2 -2 -2 -2 -2 -2 -2 -2 -3 -3 -4 -4 -4 -4 -4 -3 -3 -2 -1 -1 -0 1 1 -0 -2 -5 -8 -11 -15 -10 -2 4 5 5 12 20 21 7 -3 -9 -11 -2 5 4 -10 -16 -20 -26 -38 -3 8 5 -5 -2 -3 -4 -5 -3 -3 -3 -3 -2 -0 0 0 1 1 1 1 1 0 0 2 3 3 3 3 4 6 8 11 12 11 8 5 1 -1 -4 -6 -6 -6 -6 -7 -7 -7 -7 -5 -3 -2 -2 -3
-1 -2 -2 -2 -2 -2 -2 -2 -3 -3 -3 -3 -3 -4 -3 -3 -3 -3 -3 -3 -3 -3 -2 -2 -0 1 2 -1 -5 -8 -13 -15 -9 -1 5 3 6 12 22 25 20 11 0 -3 -5 -6 -7 -4 -11 -27 -49 -12 9 12 -5 -4 -3 -3 -5 -3 -2 -2 -2 -1 1 2 1 -0 -0 0 2 1 -0 -1 1 2 2 2 3 5 7 8 10 9 8 5 1 -2 -4 -6 -7 -8 -8 -6 -4 -3 -4 -6 -6 -5 -4 -4 -5
-2 -1 -1 -2 -2 -2 -2 -2 -2 -3 -3 -3 -3 -3 -3 -3 -3 -3 -3 -2 -2 -2 -2 -2 -2 -0 2 2 -1 -5 -10 -15 -14 -8 1 3 4 7 15 22 29 33 33 22 8 -6 -18 -3 4 -7 -49 -39 -7 21 15 2 -2 -3 -1 -2 -1 -1 -0 0 2 3 2 -1 -2 -2 0 2 1 1 -1 0 1 1 2 5 6 6 6 5 3 2 -0 -2 -3 -5 -6 -7 -6 -4 -1 0 -1 -3 -3 -2 -2 -2 -1
-2 -1 -1 -1 -2 -2 -2 -3 -3 -3 -3 -3 -3 -3 -3 -3 -4 -4 -3 -2 -1 1 1 0 -1 -1 -0 2 1 -2 -6 -11 -14 -14 -9 -5 -0 5 12 11 9 12 25 25 24 18 3 -2 3 3 -19 -48 -43 -14 32 15 1 -6 -4 -0 2 2 -0 -1 -1 0 1 -1 -2 -2 -2 1 2 1 -1 -1 -0 1 2 3 4 4 3 3 2 2 1 1 0 -1 -2 -2 -2 -1 1 1 0 -1 -0 2 5 7 8
-2 -1 -1 -2 -2 -2 -2 -2 -3 -3 -3 -3 -3 -2 -2 -3 -3 -4 -4 -3 -2 -0 2 2 1 0 -0 1 1 -0 -4 -6 -8 -10 -13 -15 -10 -1 9 4 0 0 4 8 16 23 25 17 7 1 5 -16 -45 -56 -22 9 12 3 -3 -2 1 3 1 -2 -3 -3 -3 -2 -1 -2 -3 -2 0 2 1 -0 0 1 2 3 4 5 4 4 3 2 3 3 2 1 -1 -1 -1 -0 0 -0 -2 -4 -4 2 7 10 8
-1 -1 -1 -2 -2 -2 -2 -2 -2 -3 -3 -2 -2 -2 -2 -2 -2 -3 -3 -3 -2 -1 0 1 1 1 0 0 1 -0 -2 -5 -5 -4 -3 -9 -12 -10 2 1 -2 -3 0 2 6 10 17 19 17 14 15 10 -9 -34 -55 -30 -7 8 8 6 4 2 1 -1 -2 -3 -4 -3 -1 -1 -2 -3 -2 -0 1 0 -0 0 1 2 3 4 3 2 2 2 3 2 1 0 -1 -1 -1 -1 -1 -2 -4 -4 -0 6 9 8 5
-1 -1 -1 -2 -2 -2 -2 -2 -2 -2 -2 -2 -2 -2 -3 -3 -2 -2 -2 -2 -1 -1 0 0 0 0 0 0 0 0 -0 -3 -5 -4 1 2 -5 -11 -9 -4 -3 -4 -3 -2 1 3 6 8 13 18 19 13 8 -2 -22 -37 -33 -20 -11 3 10 11 5 3 0 -1 -3 -3 -2 -1 -0 -2 -2 -2 -1 -1 -1 -1 -2 -2 -1 0 1 2 3 4 5 3 1 0 -0 -1 -1 -0 1 -0 -1 1 6 9 10 8 7
Height
1577 1576 1575 1574 1573 1573 1572 1571 1570 1569 1568 1567 1566 1565 1565 1564 1563 1562 1561 1561 1560 1559 1559 1558 1556 1555 1554 1552 1551 1550 1549 1548 1546 1545 1544 1543 1542 1541 1540 1539 1538 1537 1536 1535 1534 1533 1531 1529 1526 1525 1526 1527 1526 1526 1525 1525 1524 1524 1524 1523 1523 1523 1523 1524 1524 1523 1523 1522 1522 1522 1522 1522 1521 1521 1521 1521 1520 1520 1519 1519 1518 1518 1518 1518 1518 1518 1517 1518 1518 1518 1518 1518 1518 1518 1518 1518 1518 1518 1519 1519 1519 1519 1520
1576 1575 1574 1573 1573 1572 1571 1570 1569 1568 1568 1567 1566 1565 1564 1563 1562 1561 1561 1560 1559 1559 1558 1556 1555 1554 1553 1551 1550 1549 1548 1547 1546 1544 1544 1542 1541 1540 1539 1538 1537 1536 1535 1534 1533 1531 1530 1527 1525 1524 1525 1525 1525 1524 1524 1523 1523 1523 1522 1522 1522 1522 1522 1523 1523 1522 1521 1521 1520 1520 1520 1520 1520 1520 1520 1519 1519 1519 1518 1518 1517 1517 1516 1516 1516 1515 1516 1516 1516 1516 1516 1516 1516 1516 1516 1516 1516 1516 1517 1517 1518 1518 1519
1575 1574 1574 1573 1572 1571 1570 1569 1569 1568 1567 1566 1565 1564 1564 1563 1562 1561 1560 1559 1559 1558 1557 1555 1554 1553 1552 1551 1549 1548 1547 1546 1545 1544 1543 1541 1540 1539 1539 1537 1536 1535 1534 1532 1531 1530 1528 1525 1524 1523 1524 1524 1524 1523 1522 1521 1521 1521 1521 1521 1521 1521 1521 1521 1521 1521 1520 1519 1519 1519 1519 1519 1519 1519 1519 1518 1518 1517 1517 1516 1516 1515 1515 1514 1514 1514 1514 1514 1514 1514 1514 1514 1514 1514 1514 1514 1514 1515 1515 1515 1516 1516 1517
1575 1574 1574 1573 1572 1571 1570 1569 1568 1567 1567 1566 1565 1564 1563 1562 1561 1560 1560 1559 1558 1557 1556 1555 1554 1552 1551 1550 1549 1548 1547 1545 1544 1543 1542 1541 1539 1539 1538 1536 1535 1534 1533 1531 1530 1528 1526 1523 1522 1522 1523 1523 1522 1521 1521 1520 1519 1519 1519 1519 1520 1520 1521 1520 1520 1519 1519 1518 1518 1518 1518 1518 1517 1517 1517 1517 1517 1516 1516 1515 1515 1514 1513 1513 1512 1512 1512 1512 1512 1512 1512 1512 1513 1513 1513 1513 1513 1513 1513 1514 1514 1514 1515
1575 1574 1573 1572 1572 1571 1570 1569 1568 1567 1566 1566 1565 1564 1563 1562 1561 1560 1559 1559 1558 1556 1555 1554 1553 1552 1551 1550 1549 1547 1546 1545 1544 1543 1541 1540 1539 1538 1537 1535 1534 1533 1531 1530 1529 1527 1525 1522 1521 1521 1521 1521 1521 1520 1519 1519 1518 1517 1517 1517 1518 1519 1519 1519 1519 1518 1517 1517 1517 1516 1516 1516 1516 1516 1516 1516 1516 1515 1515 1514 1514 1513 1512 1511 1511 1510 1510 1510 1510 1510 1510 1510 1510 1511 1511 1511 1511 1511 1511 1512 1512 1513 1513
1575 1574 1573 1572 1571 1570 1570 1569 1568 1567 1566 1565 1564 1564 1563 1562 1561 1560 1559 1558 1557 1556 1555 1554 1553 1552 1550 1549 1548 1547 1546 1545 1544 1542 1541 1540 1539 1537 1536 1535 1534 1532 1531 1529 1528 1526 1524 1521 1520 1520 1520 1519 1519 1519 1518 1517 1517 1516 1515 1515 1516 1518 1518 1518 1518 1517 1516 1516 1515 1515 1515 1515 1515 1515 1515 1515 1515 1514 1514 1513 1512 1512 1511 1510 1509 1509 1509 1509 1508 1508 1508 1508 1509 1509 1509 1509 1509 1509 1509 1510 1510 1511 1511
1574 1574 1573 1572 1571 1570 1569 1569 1568 1567 1566 1565 1564 1564 1563 1562 1561 1560 1559 1558 1557 1556 1555 1554 1553 1551 1550 1549 1548 1547 1546 1544 1543 1542 1541 1539 1538 1537 1535 1534 1533 1531 1530 1528 1527 1525 1523 1521 1520 1519 1519 1518 1518 1517 1516 1516 1515 1515 1514 1514 1515 1516 1517 1517 1516 1516 1515 1514 1514 1514 1514 1514 1514 1514 1514 1514 1513 1513 1512 1512 1511 1510 1509 1509 1508 1507 1507 1507 1506 1506 1506 1506 1506 1507 1507 1507 1507 1508 1508 1508 1509 1509 1509
1574 1574 1573 1572 1571 1570 1569 1569 1568 1567 1566 1565 1564 1564 1563 1562 1561 1560 1559 1558 1557 1555 1554 1554 1552 1551 1550 1549 1548 1546 1545 1544 1543 1542 1540 1539 1537 1536 1534 1533 1532 1530 1529 1527 1526 1524 1523 1521 1520 1519 1518 1517 1516 1516 1515 1514 1514 1514 1513 1513 1513 1514 1515 1515 1515 1514 1514 1513 1513 1513 1513 1513 1513 1513 1513 1512 1512 1511 1511 1510 1510 1509 1508 1507 1507 1506 1505 1505 1504 1504 1504 1504 1504 1504 1504 1505 1505 1506 1506 1506 1506 1507 1507
1574 1573 1572 1571 1571 1570 1569 1568 1567 1567 1566 1565 1564 1563 1563 1562 1561 1560 1559 1557 1556 1555 1554 1553 1552 1550 1549 1548 1547 1546 1545 1544 1542 1541 1540 1538 1537 1535 1534 1532 1531 1529 1528 1526 1525 1524 1522 1520 1519 1518 1517 1516 1515 1514 1514 1513 1512 1512 1512 1512 1512 1512 1513 1513 1513 1513 1512 1512 1512 1511 1511 1512 1512 1511 1511 1511 1510 1510 1509 1509 1508 1508 1507 1506 1505 1504 1504 1504 1503 1503 1502 1502 1502 1502 1503 1503 1503 1504 1504 1504 1504 1505 1505
1574 1573 1572 1571 1570 1569 1569 1568 1567 1566 1565 1565 1564 1563 1562 1561 1560 1559 1558 1557 1555 1554 1553 1552 1551 1549 1549 1547 1546 1545 1544 1543 1541 1540 1539 1537 1536 1534 1533 1531 1530 1528 1527 1525 1524 1523 1522 1520 1519 1518 1516 1515 1514 1513 1512 1511 1511 1510 1510 1510 1511 1511 1511 1511 1511 1511 1511 1511 1510 1510 1510 1510 1510 1510 1509 1509 1509 1508 1508 1507 1507 1506 1505 1505 1504 1503 1503 1502 1501 1501 1500 1500 1500 1500 1500 1501 1501 1502 1502 1502 1503 1503 1503
1573 1572 1571 1571 1570 1569 1568 1568 1567 1566 1565 1564 1564 1563 1562 1561 1559 1558 1557 1556 1554 1553 1552 1551 1549 1548 1547 1546 1545 1544 1543 1542 1540 1539 1538 1536 1535 1533 1532 1530 1529 1527 1525 1524 1523 1522 1520 1519 1518 1516 1515 1514 1513 1512 1511 1510 1509 1509 1509 1509 1509 1509 1509 1509 1509 1509 1509 1509 1509 1509 1509 1508 1508 1508 1507 1507 1507 1506 1506 1506 1505 1505 1504 1503 1503 1502 1501 1500 1500 1499 1499 1499 1498 1498 1498 1499 1499 1499 1500 1500 1500 1501 1501
1573 1572 1571 1570 1569 1569 1568 1567 1566 1565 1565 1564 1563 1562 1561 1560 1559 1558 1556 1555 1554 1552 1551 1550 1548 1547 1546 1545 1544 1543 1541 1540 1539 1538 1537 1535 1534 1532 1531 1529 1528 1526 1524 1523 1521 1520 1519 1517 1516 1515 1514 1513 1512 1510 1509 1508 1507 1507 1507 1508 1508 1508 1508 1508 1508 1508 1508 1508 1507 1507 1507 1506 1506 1505 1505 1505 1504 1504 1504 1504 1504 1503 1502 1502 1501 1500 1500 1499 1499 1498 1497 1497 1497 1496 1496 1497 1497 1497 1498 1498 1499 1499 1499
1572 1571 1571 1570 1569 1568 1568 1567 1566 1565 1564 1563 1562 1561 1560 1559 1558 1557 1555 1554 1553 1551 1550 1549 1547 1546 1544 1543 1542 1541 1540 1539 1538 1537 1535 1534 1533 1531 1529 1528 1526 1525 1523 1522 1520 1519 1517 1516 1514 1514 1513 1511 1510 1509 1508 1507 1506 1505 1505 1506 1506 1506 1506 1506 1506 1506 1506 1506 1506 1505 1505 1504 1504 1503 1503 1503 1502 1502 1502 1502 1501 1501 1501 1500 1499 1499 1498 1498 1497 1496 1496 1495 1495 1494 1494 1494 1495 1495 1496 1496 1496 1497 1497
1572 1571 1570 1569 1569 1568 1567 1566 1565 1564 1564 1563 1561 1560 1559 1558 1557 1555 1554 1553 1552 1550 1549 1547 1546 1544 1543 1542 1541 1540 1539 1538 1537 1536 1534 1533 1531 1530 1529 1527 1525 1524 1522 1520 1519 1517 1516 1514 1513 1512 1511 1510 1509 1508 1507 1505 1504 1504 1504 1504 1504 1504 1505 1505 1504 1504 1504 1504 1504 1503 1503 1502 1502 1501 1501 1500 1500 1500 1500 1499 1499 1499 1499 1498 1498 1497 1497 1496 1495 1495 1494 1494 1493 1493 1493 1493 1493 1493 1493 1494 1494 1495 1495
1571 1570 1570 1569 1568 1567 1566 1565 1564 1564 1563 1562 1560 1559 1558 1557 1556 1554 1553 1552 1550 1549 1548 1546 1545 1544 1542 1540 1539 1538 1538 1537 1536 1534 1533 1532 1530 1529 1527 1526 1524 1523 1521 1519 1518 1516 1515 1513 1512 1511 1510 1509 1508 1507 1505 1504 1503 1503 1503 1503 1503 1503 1503 1503 1503 1503 1502 1502 1502 1501 1500 1500 1499 1499 1499 1499 1498 1498 1498 1497 1497 1497 1497 1496 1496 1495 1495 1494 1494 1493 1493 1492 1492 1491 1491 1491 1491 1491 1491 1492 1492 1493 1493
1571 1570 1569 1568 1567 1566 1565 1564 1564 1563 1562 1561 1559 1559 1557 1556 1555 1553 1552 1551 1549 1548 1546 1545 1544 1542 1541 1539 1538 1537 1536 1535 1534 1533 1532 1530 1529 1528 1526 1525 1523 1521 1520 1518 1517 1515 1514 1512 1511 1510 1509 1508 1506 1505 1504 1503 1502 1502 1502 1502 1501 1501 1501 1501 1501 1500 1500 1500 1499 1499 1498 1498 1497 1497 1497 1496 1496 1496 1495 1495 1495 1495 1495 1494 1494 1494 1493 1493 1492 1491 1491 1490 1490 1489 1489 1489 1489 1489 1489 1489 1490 1490 1491
1570 1569 1568 1567 1566 1565 1564 1564 1563 1562 1561 1559 1559 1557 1556 1555 1554 1552 1551 1549 1548 1547 1545 1544 1543 1541 1540 1539 1537 1535 1534 1533 1532 1531 1530 1529 1528 1526 1525 1524 1522 1520 1519 1517 1515 1514 1513 1511 1510 1509 1507 1506 1505 1504 1503 1502 1501 1501 1501 1500 1500 1500 1499 1499 1499 1498 1498 1498 1497 1497 1496 1495 1495 1495 1494 1494 1494 1494 1493 1493 1493 1493 1493 1492 1492 1492 1491 1491 1490 1490 1489 1489 1489 1488 1487 1487 1487 1487 1487 1487 1488 1488 1489
1569 1568 1567 1566 1565 1564 1563 1562 1561 1560 1559 1558 1557 1556 1555 1554 1552 1551 1549 1548 1547 1545 1544 1543 1541 1540 1539 1537 1536 1534 1532 1531 1530 1529 1528 1527 1526 1525 1524 1522 1521 1519 1517 1516 1515 1514 1512 1511 1509 1508 1506 1505 1504 1503 1502 1501 1500 1500 1499 1499 1499 1499 1498 1497 1497 1496 1496 1495 1495 1494 1494 1494 1493 1493 1492 1492 1492 1491 1491 1491 1490 1490 1490 1490 1490 1489 1489 1489 1488 1488 1487 1487 1487 1486 1486 1485 1485 1485 1485 1485 1485 1486 1486
1568 1567 1566 1565 1564 1563 1562 1561 1560 1559 1558 1556 1555 1554 1553 1552 1550 1549 1548 1546 1545 1544 1542 1541 1540 1539 1537 1536 1534 1533 1531 1530 1528 1527 1526 1525 1524 1523 1522 1521 1519 1518 1516 1515 1514 1513 1511 1510 1509 1507 1505 1504 1503 1502 1501 1499 1499 1499 1498 1498 1497 1497 1496 1495 1495 1494 1494 1493 1492 1492 1492 1491 1491 1490 1490 1489 1489 1489 1489 1488 1488 1488 1488 1488 1487 1487 1487 1486 1486 1486 1485 1485 1484 1484 1484 1483 1483 1483 1483 1483 1483 1484 1484
1567 1566 1565 1564 1563 1562 1560 1559 1558 1557 1556 1554 1553 1552 1551 1549 1548 1547 1546 1544 1543 1542 1541 1539 1538 1537 1536 1534 1533 1531 1530 1529 1527 1526 1525 1524 1523 1522 1520 1519 1518 1517 1516 1514 1513 1512 1510 1509 1508 1506 1505 1503 1502 1501 1499 1498 1498 1497 1497 1496 1496 1495 1494 1494 1493 1492 1491 1490 1490 1489 1489 1489 1489 1488 1488 1487 1487 1486 1486 1486 1485 1485 1485 1485 1485 1484 1484 1484 1484 1483 1483 1483 1482 1482 1482 1481 1481 1481 1481 1481 1481 1481 1482
1565 1564 1563 1562 1561 1560 1559 1557 1556 1554 1553 1552 1550 1549 1548 1546 1545 1544 1543 1542 1541 1540 1539 1538 1536 1535 1534 1532 1531 1529 1528 1527 1526 1525 1524 1523 1521 1520 1519 1518 1517 1516 1515 1514 1512 1511 1509 1508 1507 1505 1504 1502 1501 1499 1498 1497 1496 1496 1495 1494 1494 1493 1492 1491 1490 1490 1489 1488 1488 1487 1487 1486 1486 1486 1485 1484 1484 1484 1483 1483 1483 1483 1482 1482 1482 1482 1482 1481 1481 1481 1481 1480 1480 1480 1480 1479 1479 1479 1479 1479 1479 1479 1479
1564 1563 1561 1560 1559 1558 1556 1555 1554 1552 1550 1549 1548 1546 1545 1544 1543 1542 1541 1540 1539 1538 1537 1536 1534 1533 1532 1530 1529 1528 1527 1525 1524 1523 1522 1521 1520 1519 1518 1517 1516 1515 1514 1512 1511 1510 1509 1507 1506 1504 1503 1501 1500 1498 1497 1496 1495 1494 1494 1493 1492 1491 1490 1489 1488 1488 1487 1486 1485 1485 1484 1484 1483 1483 1482 1482 1481 1481 1480 1480 1480 1480 1480 1479 1479 1479 1479 1479 1479 1479 1479 1478 1478 1478 1478 1477 1477 1477 1477 1477 1477 1477 1477
1562 1561 1560 1559 1557 1556 1554 1553 1551 1550 1548 1547 1546 1544 1543 1542 1541 1540 1539 1538 1537 1536 1535 1534 1533 1532 1530 1529 1528 1527 1525 1524 1523 1522 1521 1519 1519 1518 1517 1516 1514 1513 1512 1511 1510 1509 1508 1506 1505 1503 1502 1500 1499 1497 1495 1494 1494 1493 1492 1491 1490 1489 1488 1487 1486 1485 1484 1484 1483 1482 1482 1481 1481 1480 1480 1479 1479 1478 1478 1478 1477 1477 1477 1477 1477 1477 1477 1476 1476 1476 1476 1476 1476 1476 1475 1475 1475 1475 1474 1474 1474 1475 1475
1560 1559 1558 1556 1555 1554 1552 1551 1549 1548 1547 1545 1544 1543 1542 1541 1540 1539 1537 1536 1535 1534 1533 1532 1531 1530 1529 1528 1527 1526 1525 1524 1522 1521 1520 1519 1517 1516 1515 1514 1513 1512 1511 1509 1509 1507 1506 1505 1504 1502 1500 1499 1497 1496 1494 1493 1492 1491 1490 1489 1488 1487 1486 1485 1484 1483 1482 1481 1480 1479 1479 1478 1478 1478 1477 1477 1476 1476 1475 1475 1475 1474 1474 1474 1474 1474 1474 1474 1474 1474 1474 1474 1474 1474 1474 1473 1473 1473 1473 1472 1472 1472 1473
1559 1557 1556 1554 1553 1552 1550 1549 1548 1547 1545 1544 1543 1542 1540 1540 1539 1538 1536 1535 1534 1533 1532 1531 1530 1529 1528 1527 1526 1525 1524 1523 1521 1520 1519 1518 1516 1515 1514 1513 1512 1511 1509 1508 1507 1506 1505 1504 1502 1500 1499 1497 1496 1494 1493 1491 1490 1489 1488 1487 1486 1485 1484 1483 1482 1480 1479 1478 1478 1477 1476 1475 1475 1475 1474 1474 1474 1473 1473 1473 1472 1472 1472 1472 1472 1472 1472 1471 1471 1471 1471 1472 1472 1472 1471 1471 1471 1471 1470 1470 1471 1471 1471
1557 1555 1554 1553 1551 1550 1549 1548 1547 1545 1544 1543 1542 1541 1539 1539 1538 1537 1535 1534 1533 1532 1530 1529 1529 1528 1527 1526 1524 1523 1522 1521 1520 1519 1518 1516 1515 1514 1512 1511 1510 1509 1508 1507 1505 1504 1503 1502 1501 1499 1498 1496 1494 1493 1491 1490 1489 1488 1486 1485 1484 1483 1481 1480 1479 1478 1477 1476 1475 1474 1474 1473 1472 1472 1472 1471 1471 1471 1470 1470 1469 1469 1469 1469 1469 1469 1469 1469 1469 1469 1469 1469 1469 1469 1469 1469 1469 1469 1469 1469 1469 1469 1469
1555 1554 1553 1551 1550 1549 1548 1546 1545 1544 1543 1542 1541 1540 1539 1537 1536 1535 1534 1533 1532 1531 1529 1528 1527 1526 1525 1524 1523 1522 1521 1520 1519 1517 1516 1515 1514 1512 1511 1510 1509 1508 1507 1505 1504 1503 1502 1500 1499 1498 1496 1494 1493 1491 1489 1488 1487 1485 1484 1483 1482 1480 1479 1478 1476 1475 1474 1474 1473 1472 1471 1470 1470 1469 1469 1469 1468 1468 1468 1467 1467 1467 1467 1467 1467 1467 1467 1467 1467 1467 1467 1467 1467 1467 1467 1466 1466 1466 1466 1466 1466 1466 1466
1554 1553 1551 1550 1549 1548 1547 1545 1544 1543 1542 1541 1540 1539 1538 1536 1535 1534 1533 1532 1531 1529 1528 1527 1526 1525 1524 1523 1522 1520 1519 1518 1517 1516 1515 1514 1512 1511 1510 1509 1507 1506 1505 1504 1503 1501 1500 1499 1498 1496 1495 1493 1491 1489 1487 1486 1484 1484 1482 1481 1479 1478 1477 1475 1474 1473 1472 1471 1470 1469 1468 1468 1467 1466 1466 1465 1465 1465 1465 1465 1464 1464 1464 1464 1464 1464 1464 1464 1464 1464 1464 1464 1465 1464 1464 1464 1464 1464 1464 1464 1464 1464 1464
1553 1551 1550 1549 1548 1547 1545 1544 1543 1542 1541 1540 1539 1538 1537 1535 1534 1533 1532 1531 1530 1529 1528 1526 1525 1524 1523 1521 1520 1519 1518 1516 1515 1514 1513 1512 1511 1510 1509 1507 1506 1505 1504 1503 1501 1500 1499 1498 1496 1495 1493 1492 1490 1488 1486 1484 1483 1481 1480 1479 1477 1476 1474 1473 1471 1470 1469 1468 1467 1466 1465 1464 1464 1464 1463 1463 1462 1462 1462 1462 1462 1461 1461 1461 1461 1461 1461 1461 1462 1462 1462 1462 1462 1462 1462 1462 1462 1461 1461 1461 1462 1462 1462
1551 1550 1549 1548 1547 1546 1544 1543 1542 1541 1540 1539 1538 1537 1535 1534 1534 1532 1531 1530 1529 1528 1527 1525 1524 1523 1522 1520 1519 1518 1516 1515 1514 1513 1512 1511 1509 1509 1507 1506 1505 1504 1503 1501 1500 1499 1497 1496 1494 1493 1492 1490 1489 1487 1485 1483 1481 1479 1478 1477 1475 1473 1472 1470 1469 1468 1466 1465 1464 1463 1462 1462 1461 1460 1460 1459 1459 1459 1459 1459 1459 1459 1459 1459 1458 1459 1459 1459 1459 1459 1459 1459 1459 1459 1459 1459 1459 1459 1459 1459 1459 1459 1459
1550 1549 1548 1547 1546 1545 1544 1543 1541 1540 1539 1538 1537 1536 1535 1534 1533 1532 1531 1529 1528 1527 1525 1524 1523 1522 1520 1519 1518 1517 1515 1514 1512 1511 1510 1509 1508 1507 1506 1505 1504 1502 1501 1500 1499 1497 1496 1494 1493 1492 1490 1489 1487 1485 1484 1481 1479 1477 1476 1474 1473 1471 1469 1468 1466 1465 1463 1462 1461 1460 1459 1459 1458 1457 1457 1457 1456 1456 1456 1456 1456 1456 1456 1456 1456 1456 1456 1456 1456 1457 1457 1457 1457 1457 1457 1457 1457 1457 1456 1456 1456 1457 1457
1549 1548 1547 1546 1545 1544 1543 1542 1540 1539 1538 1537 1536 1535 1534 1533 1532 1531 1530 1529 1528 1526 1525 1524 1522 1521 1519 1518 1516 1515 1514 1513 1511 1510 1509 1508 1507 1506 1504 1504 1502 1501 1500 1499 1497 1496 1494 1493 1492 1490 1489 1487 1486 1484 1482 1480 1477 1475 1474 1472 1470 1469 1467 1465 1464 1462 1460 1459 1458 1457 1456 1455 1455 1454 1454 1454 1453 1453 1453 1453 1453 1453 1453 1453 1453 1453 1453 1453 1454 1454 1454 1454 1454 1454 1455 1454 1454 1454 1454 1454 1454 1454 1454
1548 1547 1546 1545 1544 1543 1542 1541 1540 1539 1537 1536 1535 1534 1533 1532 1531 1530 1529 1528 1527 1526 1524 1523 1521 1520 1519 1517 1515 1514 1513 1512 1510 1509 1507 1506 1505 1504 1503 1502 1501 1499 1498 1497 1495 1494 1493 1491 1490 1489 1487 1486 1484 1482 1480 1478 1476 1474 1471 1469 1468 1466 1464 1462 1461 1459 1458 1456 1455 1454 1453 1452 1452 1451 1451 1450 1450 1450 1450 1450 1450 1450 1450 1450 1450 1450 1450 1451 1451 1451 1452 1452 1452 1452 1452 1452 1451 1451 1451 1451 1451 1451 1452
1547 1546 1545 1544 1543 1542 1541 1540 1539 1538 1537 1535 1534 1534 1533 1532 1531 1530 1529 1528 1526 1525 1524 1522 1521 1519 1518 1516 1515 1513 1512 1510 1509 1508 1506 1505 1504 1503 1502 1500 1499 1498 1496 1495 1494 1492 1491 1490 1488 1487 1485 1484 1482 1480 1478 1476 1474 1472 1469 1468 1465 1464 1462 1460 1458 1456 1454 1453 1452 1450 1449 1449 1449 1448 1448 1447 1447 1447 1447 1447 1447 1447 1447 1447 1447 1448 1448 1448 1449 1449 1449 1449 1450 1449 1449 1449 1449 1448 1448 1449 1449 1449 1449
1546 1545 1544 1543 1542 1541 1540 1539 1538 1537 1536 1535 1534 1533 1532 1531 1530 1529 1528 1527 1525 1524 1523 1521 1520 1518 1517 1515 1514 1512 1511 1509 1508 1507 1505 1504 1503 1501 1500 1499 1497 1496 1494 1493 1492 1491 1489 1488 1486 1484 1483 1481 1479 1478 1476 1474 1472 1470 1468 1466 1464 1461 1459 1457 1455 1453 1452 1450 1449 1448 1447 1446 1445 1445 1445 1444 1444 1444 1444 1444 1444 1444 1444 1444 1444 1445 1445 1445 1446 1446 1447 1447 1447 1447 1446 1446 1445 1445 1445 1445 1446 1446 1446
1545 1544 1543 1542 1541 1540 1539 1538 1537 1536 1535 1534 1533 1532 1531 1530 1529 1528 1526 1525 1524 1523 1521 1520 1519 1517 1515 1514 1512 1511 1509 1508 1507 1505 1504 1503 1501 1500 1499 1497 1496 1494 1493 1491 1490 1489 1487 1486 1484 1482 1481 1479 1477 1475 1474 1472 1470 1468 1466 1464 1462 1459 1457 1455 1453 1450 1449 1448 1446 1445 1444 1444 1443 1443 1442 1442 1442 1441 1441 1441 1441 1441 1441 1441 1442 1442 1443 1443 1443 1444 1444 1444 1444 1444 1443 1443 1442 1442 1442 1443 1443 1444 1444
1544 1543 1542 1541 1540 1539 1538 1537 1536 1535 1534 1533 1532 1531 1530 1529 1528 1527 1525 1524 1523 1521 1520 1518 1517 1516 1514 1513 1511 1509 1508 1507 1505 1504 1503 1502 1500 1499 1498 1496 1495 1493 1492 1490 1489 1487 1485 1484 1482 1480 1479 1477 1475 1473 1472 1470 1468 1466 1464 1462 1460 1458 1455 1453 1450 1448 1447 1445 1444 1443 1442 1441 1441 1440 1440 1439 1439 1439 1439 1438 1438 1438 1439 1439 1439 1440 1440 1440 1440 1441 1441 1441 1440 1439 1439 1439 1439 1439 1439 1440 1440 1441 1442
1544 1542 1541 1540 1539 1538 1537 1536 1535 1534 1533 1532 1531 1530 1529 1528 1527 1526 1524 1523 1522 1520 1519 1517 1516 1515 1514 1512 1510 1509 1508 1506 1504 1503 1502 1500 1499 1498 1496 1495 1494 1492 1490 1489 1487 1485 1483 1481 1480 1478 1476 1475 1473 1471 1470 1468 1466 1465 1463 1461 1459 1456 1454 1451 1449 1446 1444 1443 1442 1441 1439 1439 1438 1438 1437 1437 1437 1436 1436 1436 1436 1436 1436 1436 1437 1438 1438 1438 1438 1437 1437 1436 1436 1436 1435 1435 1435 1435 1436 1437 1438 1439 1439
1543 1541 1540 1539 1538 1537 1536 1535 1534 1533 1532 1531 1530 1529 1528 1527 1525 1524 1524 1522 1521 1519 1518 1516 1514 1514 1513 1511 1510 1508 1507 1505 1504 1502 1501 1499 1498 1497 1495 1494 1492 1491 1489 1487 1485 1484 1482 1479 1478 1476 1474 1473 1471 1470 1468 1466 1465 1463 1461 1459 1457 1455 1452 1450 1447 1445 1443 1441 1440 1439 1438 1437 1436 1435 1435 1434 1434 1434 1434 1434 1433 1433 1433 1434 1434 1435 1435 1435 1434 1433 1432 1432 1432 1433 1433 1434 1434 1433 1433 1434 1435 1437 1438
1542 1541 1539 1538 1537 1536 1535 1534 1533 1532 1531 1530 1529 1528 1527 1526 1525 1523 1522 1521 1520 1519 1518 1516 1514 1512 1511 1510 1509 1507 1506 1505 1503 1501 1500 1499 1497 1496 1494 1493 1491 1489 1488 1486 1484 1482 1480 1478 1476 1474 1473 1471 1470 1468 1466 1465 1463 1461 1459 1457 1455 1453 1451 1448 1446 1444 1442 1440 1439 1437 1436 1435 1434 1433 1432 1431 1431 1431 1431 1431 1431 1431 1431 1431 1431 1432 1432 1431 1430 1430 1429 1429 1430 1430 1431 1431 1431 1430 1429 1431 1433 1435 1436
1541 1539 1539 1537 1536 1535 1534 1533 1532 1531 1530 1529 1529 1527 1526 1525 1524 1523 1521 1520 1519 1518 1517 1515 1514 1512 1510 1509 1508 1506 1504 1504 1502 1501 1499 1498 1497 1495 1493 1492 1490 1488 1486 1484 1482 1480 1478 1476 1474 1473 1471 1469 1468 1466 1464 1463 1461 1459 1457 1455 1453 1451 1449 1447 1445 1443 1441 1439 1438 1436 1434 1433 1431 1430 1430 1429 1428 1428 1428 1429 1429 1428 1428 1428 1428 1428 1427 1427 1428 1428 1428 1427 1427 1427 1427 1427 1427 1427 1428 1429 1431 1433 1434
1540 1539 1538 1536 1535 1534 1533 1532 1531 1530 1529 1528 1528 1526 1525 1524 1523 1522 1520 1519 1518 1517 1516 1515 1514 1512 1510 1508 1507 1505 1504 1503 1502 1500 1499 1497 1495 1494 1492 1491 1489 1487 1485 1483 1481 1479 1477 1475 1473 1471 1469 1468 1466 1464 1463 1461 1459 1457 1455 1453 1451 1449 1447 1445 1444 1442 1440 1438 1436 1434 1432 1430 1429 1428 1427 1426 1425 1424 1424 1424 1424 1424 1424 1425 1425 1425 1425 1425 1425 1425 1424 1424 1424 1424 1424 1425 1426 1426 1427 1428 1429 1430 1431
1539 1538 1536 1535 1534 1533 1532 1531 1530 1529 1528 1527 1526 1525 1524 1524 1522 1521 1520 1519 1517 1515 1514 1514 1513 1511 1509 1508 1506 1505 1503 1502 1500 1499 1498 1496 1494 1493 1491 1489 1488 1485 1484 1482 1480 1478 1476 1474 1472 1470 1468 1466 1464 1462 1461 1459 1457 1455 1454 1451 1449 1447 1445 1444 1442 1440 1438 1436 1434 1433 1430 1429 1427 1425 1424 1424 1423 1422 1420 1419 1419 1419 1420 1421 1422 1422 1422 1423 1422 1421 1421 1420 1420 1421 1422 1423 1424 1425 1425 1426 1427 1427 1428
1538 1537 1535 1534 1533 1532 1531 1530 1529 1528 1527 1526 1525 1524 1524 1523 1522 1520 1519 1518 1516 1515 1513 1513 1512 1511 1509 1507 1505 1504 1503 1501 1500 1498 1497 1495 1494 1492 1490 1488 1486 1484 1483 1481 1479 1477 1475 1473 1470 1469 1467 1465 1463 1460 1459 1457 1455 1454 1452 1450 1448 1446 1444 1442 1440 1438 1436 1434 1433 1431 1429 1427 1425 1424 1422 1421 1419 1419 1418 1417 1416 1416 1417 1418 1419 1419 1419 1419 1418 1417 1418 1417 1418 1419 1420 1421 1422 1423 1423 1423 1424 1424 1424
1537 1536 1534 1534 1532 1531 1530 1529 1528 1527 1526 1525 1524 1524 1523 1522 1521 1519 1519 1517 1516 1514 1513 1511 1511 1510 1509 1507 1505 1504 1503 1501 1500 1498 1496 1494 1493 1491 1489 1487 1485 1484 1482 1480 1478 1475 1473 1471 1469 1467 1465 1463 1461 1459 1457 1455 1454 1452 1450 1449 1447 1444 1442 1440 1438 1436 1434 1433 1431 1429 1428 1426 1424 1422 1420 1418 1417 1415 1414 1414 1414 1415 1415 1416 1416 1416 1415 1415 1414 1414 1415 1416 1416 1418 1419 1419 1420 1420 1420 1421 1421 1421 1422
1536 1535 1534 1532 1531 1530 1529 1528 1527 1526 1525 1524 1523 1522 1521 1521 1519 1519 1517 1516 1515 1514 1512 1510 1509 1509 1508 1507 1506 1504 1503 1501 1500 1498 1496 1494 1492 1490 1489 1487 1485 1483 1481 1478 1476 1474 1472 1469 1468 1465 1463 1461 1459 1458 1456 1454 1452 1451 1449 1447 1445 1443 1440 1438 1436 1434 1432 1431 1429 1428 1426 1424 1422 1420 1419 1417 1415 1414 1412 1411 1411 1412 1412 1412 1412 1412 1412 1412 1412 1413 1413 1414 1414 1416 1416 1417 1417 1418 1418 1419 1419 1419 1420
1535 1534 1533 1531 1530 1529 1528 1527 1526 1525 1524 1523 1522 1521 1520 1519 1519 1517 1516 1515 1514 1512 1511 1509 1508 1507 1506 1506 1505 1504 1502 1501 1499 1498 1495 1494 1492 1490 1488 1486 1484 1482 1480 1477 1474 1472 1470 1468 1466 1464 1462 1460 1458 1456 1454 1453 1451 1449 1447 1445 1443 1441 1438 1436 1434 1432 1430 1429 1427 1426 1424 1422 1420 1419 1417 1416 1414 1413 1411 1410 1409 1409 1409 1409 1409 1409 1410 1410 1410 1410 1411 1411 1412 1413 1414 1414 1414 1415 1415 1415 1416 1417 1418
1534 1533 1531 1530 1529 1528 1527 1526 1525 1524 1523 1522 1521 1520 1519 1518 1517 1516 1515 1514 1513 1511 1510 1509 1507 1506 1505 1504 1504 1503 1502 1500 1499 1498 1495 1493 1491 1489 1488 1485 1482 1480 1478 1476 1474 1471 1469 1467 1465 1462 1460 1459 1457 1455 1453 1451 1449 1448 1446 1444 1442 1439 1437 1434 1432 1430 1429 1427 1425 1424 1422 1420 1419 1417 1416 1414 1413 1412 1410 1409 1408 1407 1407 1407 1407 1408 1408 1408 1408 1408 1408 1409 1409 1410 1411 1411 1412 1413 1413 1414 1414 1415 1417
1533 1531 1530 1529 1528 1527 1526 1524 1524 1523 1522 1521 1520 1519 1518 1517 1517 1516 1515 1514 1513 1511 1510 1509 1507 1506 1504 1503 1502 1501 1500 1499 1498 1497 1495 1493 1489 1487 1485 1484 1481 1479 1476 1474 1473 1470 1468 1466 1464 1461 1459 1457 1455 1454 1452 1450 1448 1446 1444 1442 1440 1437 1435 1433 1430 1429 1427 1425 1424 1422 1420 1419 1417 1416 1414 1413 1412 1411 1409 1408 1407 1406 1405 1405 1406 1406 1406 1406 1406 1406 1407 1407 1407 1408 1409 1409 1410 1411 1412 1412 1413 1414 1415
1532 1530 1529 1528 1527 1526 1524 1524 1522 1521 1521 1520 1519 1518 1517 1517 1516 1515 1514 1513 1512 1510 1509 1507 1507 1506 1504 1502 1501 1500 1499 1499 1498 1496 1494 1493 1490 1487 1483 1480 1479 1477 1474 1473 1472 1470 1467 1465 1462 1460 1458 1456 1455 1453 1451 1449 1447 1445 1443 1441 1439 1436 1433 1431 1429 1427 1425 1424 1422 1420 1419 1417 1416 1415 1414 1412 1411 1409 1408 1407 1406 1405 1405 1404 1404 1405 1405 1405 1405 1405 1405 1406 1406 1407 1408 1408 1409 1410 1411 1411 1412 1413 1414
1531 1529 1528 1527 1525 1524 1523 1522 1521 1520 1519 1519 1518 1517 1517 1516 1515 1514 1513 1512 1511 1510 1508 1506 1505 1505 1504 1503 1501 1499 1499 1498 1497 1496 1494 1492 1491 1489 1484 1480 1477 1475 1473 1471 1470 1469 1467 1464 1462 1460 1458 1456 1454 1452 1450 1448 1446 1444 1442 1439 1437 1434 1432 1429 1427 1425 1424 1422 1420 1419 1418 1416 1415 1414 1412 1411 1409 1409 1407 1406 1405 1405 1404 1404 1404 1404 1404 1405 1405 1405 1405 1406 1406 1407 1407 1408 1409 1409 1410 1410 1411 1412 1413
1529 1528 1527 1526 1524 1523 1522 1521 1520 1519 1518 1517 1516 1516 1515 1515 1514 1513 1512 1511 1510 1509 1508 1506 1504 1503 1503 1502 1501 1499 1498 1498 1497 1496 1495 1492 1489 1488 1486 1482 1478 1474 1471 1469 1467 1466 1465 1463 1461 1460 1458 1455 1453 1451 1449 1447 1444 1442 1440 1438 1435 1433 1430 1428 1426 1425 1423 1421 1420 1418 1417 1415 1414 1412 1411 1409 1409 1408 1407 1406 1405 1404 1404 1404 1404 1404 1404 1404 1404 1405 1405 1405 1406 1406 1407 1407 1408 1408 1409 1409 1410 1411 1411
1528 1527 1526 1524 1524 1522 1521 1520 1519 1518 1517 1516 1515 1514 1514 1514 1513 1512 1511 1510 1509 1509 1507 1506 1505 1503 1501 1500 1499 1498 1497 1497 1496 1495 1494 1492 1489 1486 1484 1483 1480 1476 1473 1469 1465 1463 1463 1462 1459 1457 1455 1453 1451 1449 1447 1445 1443 1440 1439 1436 1434 1431 1429 1428 1426 1424 1423 1421 1419 1417 1415 1414 1412 1411 1410 1409 1408 1407 1406 1405 1404 1404 1403 1403 1403 1403 1404 1404 1404 1404 1404 1404 1405 1405 1405 1406 1406 1407 1407 1408 1409 1409 1409
1527 1526 1525 1524 1522 1521 1520 1519 1518 1517 1516 1515 1514 1514 1513 1512 1512 1511 1510 1509 1509 1507 1506 1505 1504 1503 1501 1499 1498 1497 1496 1495 1495 1494 1493 1492 1490 1487 1483 1482 1480 1478 1475 1472 1468 1463 1460 1460 1458 1455 1451 1450 1449 1447 1445 1443 1441 1439 1437 1435 1433 1430 1429 1427 1425 1424 1422 1420 1418 1416 1414 1412 1411 1409 1409 1408 1407 1406 1405 1404 1404 1403 1402 1402 1402 1402 1402 1402 1403 1403 1403 1403 1404 1404 1404 1404 1404 1405 1406 1406 1407 1408 1408
1526 1525 1524 1523 1521 1520 1519 1518 1517 1516 1515 1514 1514 1513 1512 1512 1511 1510 1509 1509 1508 1507 1506 1504 1504 1503 1501 1499 1498 1496 1495 1494 1493 1493 1492 1491 1491 1489 1485 1481 1478 1475 1473 1472 1469 1466 1462 1459 1457 1454 1449 1448 1446 1445 1443 1441 1439 1437 1435 1434 1432 1430 1428 1426 1424 1423 1421 1419 1416 1414 1413 1411 1409 1408 1407 1407 1406 1405 1404 1404 1403 1402 1402 1402 1402 1401 1401 1401 1401 1402 1402 1402 1402 1403 1403 1403 1403 1404 1404 1405 1406 1406 1406
1524 1524 1522 1521 1520 1519 1518 1517 1516 1515 1514 1514 1513 1512 1511 1511 1510 1509 1509 1508 1507 1506 1505 1504 1503 1502 1501 1500 1498 1496 1494 1493 1492 1492 1491 1490 1489 1489 1487 1484 1480 1476 1472 1469 1467 1465 1463 1460 1457 1453 1449 1446 1444 1443 1441 1439 1438 1436 1434 1432 1430 1429 1427 1425 1423 1421 1419 1417 1415 1414 1412 1410 1409 1408 1406 1406 1405 1404 1404 1403 1402 1402 1401 1401 1401 1400 1400 1400 1400 1401 1401 1401 1402 1402 1402 1402 1402 1403 1403 1404 1404 1405 1405
1524 1523 1521 1520 1519 1518 1517 1516 1515 1514 1514 1513 1512 1511 1511 1510 1509 1509 1508 1507 1506 1505 1504 1504 1502 1501 1500 1499 1498 1496 1494 1492 1490 1490 1490 1489 1487 1487 1486 1485 1483 1481 1477 1473 1468 1464 1462 1460 1459 1454 1448 1444 1443 1442 1440 1439 1437 1435 1433 1431 1429 1428 1426 1424 1422 1420 1418 1416 1414 1412 1411 1409 1408 1407 1406 1405 1404 1403 1402 1402 1401 1401 1400 1400 1400 1399 1399 1399 1399 1400 1400 1400 1400 1400 1401 1401 1401 1402 1402 1403 1404 1404 1404
1522 1521 1520 1519 1518 1517 1516 1515 1514 1513 1512 1512 1511 1510 1510 1509 1509 1508 1507 1506 1505 1504 1504 1503 1501 1500 1499 1498 1497 1496 1494 1492 1490 1488 1488 1487 1486 1485 1484 1484 1482 1481 1479 1476 1472 1467 1462 1459 1458 1455 1450 1445 1441 1439 1438 1437 1435 1433 1432 1430 1429 1427 1425 1423 1421 1419 1417 1415 1414 1412 1410 1409 1408 1406 1405 1404 1403 1402 1401 1401 1400 1400 1399 1399 1399 1399 1399 1399 1399 1399 1399 1399 1399 1399 1399 1399 1399 1400 1401 1401 1402 1403 1403
1521 1520 1519 1518 1517 1516 1515 1514 1513 1512 1511 1511 1510 1509 1509 1508 1508 1507 1506 1505 1504 1504 1503 1502 1500 1499 1498 1497 1496 1495 1493 1491 1490 1488 1486 1485 1484 1484 1483 1481 1479 1478 1476 1474 1472 1469 1465 1461 1458 1454 1451 1447 1441 1436 1434 1434 1434 1432 1430 1429 1427 1426 1424 1422 1420 1418 1416 1414 1413 1411 1409 1408 1407 1406 1404 1403 1402 1401 1400 1400 1399 1399 1399 1399 1398 1398 1398 1397 1397 1397 1397 1397 1397 1397 1398 1398 1398 1399 1399 1400 1400 1400 1400
1520 1519 1518 1517 1516 1515 1514 1513 1512 1511 1510 1510 1509 1509 1508 1507 1506 1506 1505 1504 1504 1503 1502 1501 1500 1499 1498 1496 1495 1494 1493 1491 1489 1488 1487 1485 1483 1482 1481 1479 1477 1475 1473 1471 1469 1468 1466 1463 1459 1456 1453 1450 1445 1439 1434 1432 1431 1431 1429 1428 1426 1424 1422 1421 1419 1417 1415 1414 1412 1410 1409 1408 1406 1405 1404 1403 1401 1400 1399 1399 1399 1398 1398 1398 1397 1397 1396 1396 1396 1396 1396 1396 1396 1396 1396 1396 1397 1397 1398 1398 1398 1398 1398
1519 1518 1517 1516 1515 1514 1513 1512 1511 1510 1509 1509 1508 1507 1507 1506 1505 1504 1504 1503 1502 1502 1501 1500 1499 1498 1497 1495 1494 1493 1492 1490 1488 1487 1486 1485 1483 1481 1479 1478 1475 1473 1471 1469 1467 1465 1464 1461 1459 1457 1454 1451 1448 1444 1439 1433 1430 1428 1427 1425 1424 1423 1421 1419 1418 1416 1414 1413 1411 1410 1408 1407 1406 1404 1403 1402 1401 1400 1399 1398 1398 1397 1397 1397 1396 1396 1395 1395 1395 1395 1395 1395 1395 1395 1395 1395 1395 1396 1396 1396 1396 1396 1397